684  
ASUS41 KOKX 302009  
RWROKX  
 
REGIONAL WEATHER ROUNDUP  
NATIONAL WEATHER SERVICE NEW YORK NY  
400 PM EDT SUN APR 30 2017  
 
NOTE: "FAIR" INDICATES FEW OR NO CLOUDS BELOW 12,000 FEET WITH NO  
SIGNIFICANT WEATHER AND/OR S TO VISIBILITY
.  
 
NYZ071-072-176-178-NJZ106-104-302100-  
NEW YORK CITY METRO AREA  
 
CITY SKY/WX TMP DP RH WIND PRES REMARKS
 
CENTRAL PARK CLOUDY 58 39 49 E9G16 30.24F  
WALL ST HELIPT CLOUDY 55 43 62 E8 30.23F  
BRONX BOT GARD N/A 57 39 51 SE3 30.24R  
LAGUARDIA APRT CLOUDY 60 38 43 SE13 30.22F  
KENNEDY INTL CLOUDY 54 41 61 E20 30.23F  
BREEZY POINT N/A 50 N/A N/A E14G21 N/A  
NEWARK/LIBERTY CLOUDY 56 40 55 SE13G21 30.22F  
TETERBORO CLOUDY 60 40 47 SE9 30.20F  

 
 
NYZ177-179-078>081-302100-  
LONG ISLAND NEW YORK  
 
CITY SKY/WX TMP DP RH WIND PRES REMARKS
 
JONES BEACH N/A 50 N/A N/A E14G22 N/A  
MATINECOCK PT NOT AVBL  
FARMINGDALE CLOUDY 53 42 66 SE14 30.24S  
MACARTHUR/ISP CLOUDY 53 41 63 E14 30.25R  
SHIRLEY NOT AVBL  
MT SINAI HARB N/A N/A N/A N/A SE7 N/A  
WESTHAMPTON CLOUDY 50 40 68 E8G18 30.28R  
EAST HAMPTON CLOUDY 49 35 57 E8G17 30.27R  
MONTAUK N/A 51 39 63 SE8G20 30.28S  

 
 
NYZ052-065-067-302100-  
HUDSON VALLEY  
 
CITY SKY/WX TMP DP RH WIND PRES REMARKS
 
WHITE PLAINS PTSUNNY 57 41 55 E9 30.21F  
LARCHMONT HARB N/A 54 N/A N/A SE10 N/A  
CROTON O-T HUD N/A 61 N/A N/A SE5 N/A  
NEWBURGH CLOUDY 55 43 62 E9 30.21F  
MONTGOMERY CLOUDY 55 41 59 NE10 30.18F  
POUGHKEEPSIE CLOUDY 52 41 66 N6 30.20F  
ALBANY CLOUDY 50 35 56 NE5 30.22F  

 
 
NJZ001-105-106-008-010-013-015-019>022-104-302100-  
NEW JERSEY  
 
CITY SKY/WX TMP DP RH WIND PRES REMARKS
 
NEWARK/LIBERTY CLOUDY 56 40 55 SE13G21 30.22F  
TETERBORO CLOUDY 60 40 47 SE9 30.20F  
CALDWELL CLOUDY 58 40 51 SE7 30.21F  
SOMERVILLE PTSUNNY 59 44 57 SE9 30.18F  
LINDEN CLOUDY 54 38 54 SE14G25 30.23F  
PERTH AMBOY N/A 52 N/A N/A E20 N/A  
SUSSEX CLOUDY 60 44 55 S9G17 30.18F  
ANDOVER N/A 57 38 48 SE9G16 30.19F  
TRENTON CLOUDY 63 46 54 E13 30.16F  
MILLVILLE CLOUDY 69 57 65 SE14 30.12F  
ATLANTIC CITY CLOUDY 61 50 67 NE12 30.16S  
WRIGHTSTOWN CLOUDY 63 48 56 E12 30.15S  
TOMS RIVER CLOUDY 57 45 64 E12 30.21S  
BELMAR CLOUDY 54 42 64 E10G20 30.22F  

 
 
PAZ047>061-062-071-302100-  
EASTERN PENNSYLVANIA  
 
CITY SKY/WX TMP DP RH WIND PRES REMARKS
 
PHILADELPHIA PTSUNNY 74 53 48 E12 30.11F  
ALLENTOWN CLOUDY 66 44 45 E12 30.15S  
SCRANTON CLOUDY 65 45 48 SE7 30.12R  

 
 
CTZ002-004>006-009-010-012-RIZ004-006-007-MAZ004-011-015-302100-  
SOUTHERN NEW ENGLAND  
IN CT  
 
CITY SKY/WX TMP DP RH WIND PRES REMARKS
 
BRADLEY INTL CLOUDY 52 44 74 N8 30.24F  
HARTFORD CLOUDY 55 43 63 NE8 30.24F  
DANBURY CLOUDY 55 43 63 SE9 30.23F  
WTRBURY/OXFORD CLOUDY 52 37 58 S7 30.24F  
BRIDGEPORT CLOUDY 54 44 69 E12 30.25S  
MERIDEN CLOUDY 56 40 55 S10 30.25S  
NEW HAVEN CLOUDY 52 41 66 E12 30.25F  
CHESTER CLOUDY 50 37 62 SE8 30.25F  
GROTON CLOUDY 50 39 66 SE12 30.27R  
WILIMANTIC CLOUDY 58 42 55 S9 30.25R  
 
IN RI  
 
CITY SKY/WX TMP DP RH WIND PRES REMARKS
 
PROVIDENCE CLOUDY 55 39 54 S16 30.26R  
BLOCK ISLAND CLOUDY 48 40 73 SE13G21 30.28R  
WESTERLY CLOUDY 50 39 66 E12 30.28R  
IN MA  
 
CITY SKY/WX TMP DP RH WIND PRES REMARKS
 
BOSTON CLOUDY 46 37 71 SE9 30.30R  
WORCESTER CLOUDY 51 36 56 SE5 30.24S  
WESTFIELD CLOUDY 51 45 79 NE3 30.24F  
PROVINCETOWN CLOUDY 45 38 76 SE7 30.30R  
NANTUCKET CLOUDY 48 35 60 E12G17 30.27F  

 
 
ANZ330-335-338-340-345-350-353-355-302100-  
COASTAL MARINE OBSERVATIONS  
 
 
STATION/POSITION TIME SKY/WX TEMP WIND PRES VSBY WAVE
 
AIR SEA DIR/SP/G HT/PER  
(UTC) (F) (DEG/KT/KT) (MB) (MI) (FT/S)  
NY HARB ENTRANCE 1850 51 50 90/ 16/ 19 1023.5 3/ 7  
20 S FIRE ISLAND 1950 50 50 90/ 19/ 21 1022.5 5/ 5  
GREAT SOUTH BAY 1930 51 61 90/ 16/ 17 N/A  
23 SSW MONTAUK P 1850 48 48 1024.8 5/ 5  
15 E BARNEGAT LI 1930 53 N/A 4/ 5  
HUDSON CANYON 1850 52 49 100/ 17/ 19 1022.0 5/ 7  
KINGS POINT 1948 56 53 190/ 7/ 10 1023.3  
EXECUTION ROCKS NOT AVBL  
CENTRAL LI SOUND 1930 49 100/ 6/ 8 N/A  
EASTERN LI SOUND NOT AVBL  
ROBBINS REEF 1948 53 120/ 17/ 20 1023.5  

 
 
>>>>>>>>>>>>>>>>>>>>>>>>>>>> KEY <<<<<<<<<<<<<<<<<<<<<<<<<<<  
> <  
> SKY/WX - SKY CONDITION/PRESENT WEATHER <  
> TMP - TEMPERATURE IN FAHRENHEIT <  
> DP - DEW POINT IN FAHRENHEIT <  
> RH - RELATIVE HUMIDITY IN PERCENT <  
> WIND - DIRECTION (FROM) AND SPEED IN MPH <  
> PRES - MEAN SEA LEVEL PRESSURE (INCHES OF HG) <  
> WCI - WIND CHILL INDEX <  
> VSB - VISIBILITY IN MILES <  
> HX - HEAT INDEX <  
> TC - TEMPERATURE IN CELSIUS <  
> VRB - VARIABLE WIND DIRECTION <  
> <  
>>>>>>>>>>>>>>>>>>>>>>>>>>>> KEY <<<<<<<<<<<<<<<<<<<<<<<<<<<  
 
 
CLICK HERE TO GO TO PREVIOUS BULLETINS.

The Nexlab NY Page
The Nexlab NJ Page
The Nexlab CT Page Main Text Page